Weather History for KMDH - June, 2013

Change the Weather History Date:

Thursday, June 13, 2013

  Actual Average Record
Temperature  
Mean Temperature 74 °F -  
Max Temperature 84 °F 85 °F 97 °F (1922)
Min Temperature 64 °F 62 °F 42 °F (1985)
Cooling Degree Days 9    
Growing Degree Days 24 (Base 50)    
Moisture  
Dew Point 64 °F    
Average Humidity 66    
Maximum Humidity 90    
Minimum Humidity 47    
Precipitation  
Precipitation 0.00 in - - ()
Sea Level Pressure  
Sea Level Pressure 29.89 in    
Wind  
Wind Speed 12 mph (NW)    
Max Wind Speed 18 mph    
Max Gust Speed 31 mph    
Visibility 10 miles    
Events      
Averages and records for this station are not official NWS values.
T = Trace of Precipitation, MM = Missing Value Source: NWS Daily Summary

Daily Weather History Graph

Daily Weather History Graph

Search for Another Location

Airport or City:

Trip Planner

Search our weather history database for the weather conditions in past years. The results will help you decide how hot, cold, wet, or windy it might be!

Date:

Astronomy

Jun. 13, 2013 Rise Set
Actual Time 5:34 AM CDT 8:19 PM CDT
Civil Twilight 5:03 AM CDT 8:51 PM CDT
Nautical Twilight 4:24 AM CDT 9:30 PM CDT
Astronomical Twilight 3:39 AM CDT 10:14 PM CDT
Moon 10:07 AM CDT (6/13) 11:31 PM CDT (6/13)
Length of Visible Light 15h 47m
Length of Day
14h 45m
Waxing Crescent, 22% of the Moon is Illuminated
Jun 13
Waxing Crescent
Jun 16
First Quarter
Jun 23
Full
Jun 29
Last Quarter
Jul 8
New

Hourly Weather History & Observations

Time (CDT) Temp. Heat Index Dew Point Humidity Pressure Visibility Wind Dir Wind Speed Gust Speed Precip Events Conditions
12:52 AM 84.0 °F 87.8 °F 69.1 °F 61% 29.78 in 10.0 mi SW 16.1 mph 27.6 mph N/A   Overcast
1:52 AM 84.0 °F 87.8 °F 69.1 °F 61% 29.77 in 10.0 mi WSW 18.4 mph 26.5 mph N/A   Partly Cloudy
2:52 AM 82.0 °F 85.5 °F 69.1 °F 65% 29.77 in 10.0 mi WSW 12.7 mph 23.0 mph N/A   Clear
3:52 AM 80.1 °F 82.9 °F 69.1 °F 69% 29.78 in 10.0 mi WSW 12.7 mph - N/A   Clear
4:52 AM 80.1 °F 82.9 °F 69.1 °F 69% 29.78 in 10.0 mi West 8.1 mph - N/A   Scattered Clouds
5:52 AM 78.1 °F - 70.0 °F 76% 29.80 in 10.0 mi West 6.9 mph - N/A   Partly Cloudy
6:52 AM 78.1 °F - 64.0 °F 62% 29.82 in 10.0 mi WNW 13.8 mph 21.9 mph N/A   Scattered Clouds
7:52 AM 77.0 °F - 61.0 °F 58% 29.85 in 10.0 mi NW 17.3 mph 31.1 mph N/A   Scattered Clouds
8:52 AM 73.9 °F - 62.1 °F 66% 29.89 in 10.0 mi NW 9.2 mph - N/A   Overcast
9:52 AM 73.0 °F - 63.0 °F 71% 29.90 in 10.0 mi NNW 12.7 mph 19.6 mph N/A   Overcast
10:52 AM 73.9 °F - 64.0 °F 71% 29.92 in 10.0 mi NW 12.7 mph 19.6 mph N/A   Overcast
11:52 AM 75.0 °F - 64.9 °F 71% 29.94 in 10.0 mi NNW 9.2 mph - N/A   Overcast
12:43 PM 75.2 °F - 64.4 °F 69% 29.96 in 10.0 mi NNW 12.7 mph - N/A   Overcast
12:52 PM 75.9 °F - 64.9 °F 69% 29.94 in 10.0 mi NNW 12.7 mph - N/A   Overcast
1:52 PM 77.0 °F - 64.9 °F 66% 29.95 in 10.0 mi NNW 9.2 mph - N/A   Overcast
2:52 PM 81.0 °F 82.7 °F 64.9 °F 58% 29.95 in 10.0 mi NW 11.5 mph - N/A   Mostly Cloudy
3:52 PM 82.0 °F 83.0 °F 62.1 °F 51% 29.95 in 10.0 mi North 9.2 mph - N/A   Scattered Clouds
4:52 PM 84.0 °F 84.5 °F 62.1 °F 47% 29.93 in 10.0 mi North 10.4 mph 17.3 mph N/A   Mostly Cloudy
5:52 PM 81.0 °F 81.6 °F 60.1 °F 49% 29.92 in 10.0 mi North 8.1 mph - N/A   Clear
6:52 PM 82.0 °F 82.4 °F 60.1 °F 47% 29.94 in 10.0 mi North 6.9 mph - N/A   Partly Cloudy
7:52 PM 77.0 °F - 62.1 °F 60% 29.96 in 10.0 mi Calm Calm - N/A   Clear
8:52 PM 72.0 °F - 63.0 °F 73% 29.96 in 10.0 mi NW 3.5 mph - N/A   Scattered Clouds
9:52 PM 68.0 °F - 63.0 °F 84% 29.97 in 10.0 mi Calm Calm - N/A   Clear
10:52 PM 64.0 °F - 61.0 °F 90% 29.97 in 10.0 mi East 3.5 mph - N/A   Clear
11:52 PM 64.9 °F - 61.0 °F 87% 29.96 in 10.0 mi East 4.6 mph - N/A   Clear